Location: Diebersbach
(48.5163°N, 8.0558°E)
Time: 14:17:39
(UTC+00:00)

Cosmos 2098 Rocket - Pass Details

Date: 20 June 2021
Orbit: 366 x 1176 km, 82.9° (Epoch: 30 July)

Event Time Altitude Azimuth Distance (km) Brightness Sun altitude
Exits shadow 01:13:25 22° 204° (SSW) 1,715 4.7 -14.4°
Maximum altitude 01:16:54 63° 280° (W) 805 3.5 -14.1°
Drops below altitude 10° 01:21:16 10° 2° (N) 1,975 6.7 -13.8°
Sets 01:23:15 0° 6° (N) 2,770 7.8 -13.7°
